Shelton, WA
on Friday, November 30, 2012

Friday
Previous Day Next Day
Daily Summary
 ActualAverage (KOLM)Record (KOLM)
Temperature
Mean Temperature °F 40°F  
Max Temperature 51°F 46°F 57°F (1951)
Min Temperature 46°F 34°F 9°F (1985)
Degree Days
Heating Degree Days 16 25  
Month to date heating degree days 651  
Since 1 July heating degree days 1445  
Cooling Degree Days 0 0  
Month to date cooling degree days 0  
Year to date cooling degree days 106  
Moisture
Dew Point 47°F   
Average Humidity 94    
Maximum Humidity 100    
Minimum Humidity 82    
Precipitation
Precipitation 1.84 in 0.30 in 2.50 in (1994)
Month to date precipitation 8.63  
Year to date precipitation 42.54  
Wind
Wind Speed 6 mph   
Max Wind Speed 15 mph   
Max Gust Speed 26 mph   
Visibility 10 miles   
Events Rain   

Key: T is trace of precipitation, MM is missing value
Source: NWS Daily Summary
Time(PST)TemperatureDew PointHumidity Pressure Visibility Wind DirectionWind SpeedGust SpeedPrecipitationEvents Conditions
12:11 AM 46.4°F 46.4°F 100% 29.41 in 10.0 miles East 3.5 mph - 0.02 in Rain Light Rain
12:30 AM 48.2°F 46.4°F 93% 29.41 in 10.0 miles East 3.5 mph - 0.02 in Rain Light Rain
12:39 AM 48.2°F 46.4°F 93% 29.40 in 10.0 miles East 3.5 mph - 0.02 in Rain Light Rain
12:50 AM 48.2°F 46.4°F 93% 29.40 in 10.0 miles East 4.6 mph - 0.02 in   Overcast
12:53 AM 46.9°F 46.0°F 97% 29.41 in 10.0 miles East 4.6 mph - 0.02 in   Overcast
1:06 AM 48.2°F 46.4°F 93% 29.40 in 10.0 miles East 3.5 mph - 0.01 in Rain Light Rain
1:53 AM 48.0°F 46.9°F 96% 29.39 in 10.0 miles ENE 4.6 mph - 0.01 in Rain Light Rain
2:53 AM 48.0°F 46.9°F 96% 29.38 in 10.0 miles ESE 3.5 mph - 0.01 in   Overcast
3:53 AM 50.0°F 46.0°F 86% 29.36 in 10.0 miles SSE 8.1 mph 17.3 mph 0.00 in   Overcast
4:53 AM 50.0°F 46.0°F 86% 29.36 in 10.0 miles ESE 6.9 mph - N/A   Mostly Cloudy
5:53 AM 50.0°F 46.0°F 86% 29.34 in 10.0 miles Variable 4.6 mph - 0.00 in Rain Light Rain
6:53 AM 50.0°F 46.9°F 89% 29.35 in 10.0 miles SSE 10.4 mph - 0.07 in Rain Light Rain
7:53 AM 48.9°F 48.0°F 97% 29.37 in 10.0 miles SE 6.9 mph - 0.05 in   Overcast
8:53 AM 50.0°F 48.0°F 93% 29.38 in 10.0 miles SE 9.2 mph - 0.01 in Rain Light Rain
9:53 AM 50.0°F 48.0°F 93% 29.39 in 10.0 miles SE 6.9 mph - 0.16 in Rain Light Rain
10:53 AM 50.0°F 48.9°F 96% 29.41 in 10.0 miles South 5.8 mph - 0.11 in Rain Light Rain
11:53 AM 50.0°F 48.9°F 96% 29.39 in 10.0 miles SE 4.6 mph - 0.16 in Rain Light Rain
12:53 PM 50.0°F 50.0°F 100% 29.40 in 9.0 miles Calm Calm - 0.17 in Rain Light Rain
1:07 PM 50.0°F 48.2°F 94% 29.39 in 10.0 miles SE 5.8 mph - 0.01 in Rain Light Rain
1:25 PM 50.0°F 50.0°F 100% 29.39 in 10.0 miles SE 10.4 mph 18.4 mph 0.03 in Rain Light Rain
1:53 PM 51.1°F 48.9°F 92% 29.41 in 10.0 miles SW 13.8 mph - 0.08 in Rain Rain
2:04 PM 51.8°F 46.4°F 82% 29.40 in 8.0 miles SSW 15.0 mph 26.5 mph 0.09 in Rain Heavy Rain
2:53 PM 51.1°F 48.0°F 89% 29.40 in 10.0 miles South 9.2 mph 17.3 mph 0.20 in Rain Light Rain
3:53 PM 50.0°F 48.0°F 93% 29.42 in 10.0 miles South 10.4 mph - 0.07 in Rain Light Rain
4:53 PM 48.9°F 46.9°F 93% 29.43 in 10.0 miles South 10.4 mph - 0.12 in Rain Rain
5:53 PM 48.9°F 46.0°F 90% 29.42 in 10.0 miles SSW 13.8 mph - 0.14 in Rain Light Rain
6:53 PM 48.0°F 46.0°F 93% 29.42 in 10.0 miles South 5.8 mph - 0.10 in Rain Light Rain
7:53 PM 46.9°F 46.9°F 100% 29.41 in 10.0 miles East 4.6 mph - 0.07 in Rain Light Rain
8:24 PM 46.4°F 46.4°F 100% 29.39 in 10.0 miles ESE 8.1 mph - 0.03 in Rain Light Rain
8:53 PM 48.2°F 46.4°F 93% 29.38 in 10.0 miles Calm Calm - N/A Rain Light Rain
9:53 PM 46.9°F 46.9°F 100% 29.39 in 10.0 miles Calm Calm - 0.11 in Rain Rain
10:53 PM 46.9°F 45.0°F 93% 29.39 in 10.0 miles South 6.9 mph - 0.17 in Rain Light Rain
11:53 PM 46.0°F 45.0°F 96% 29.38 in 10.0 miles Calm Calm - 0.01 in   Overcast
Moon Phase
Nov. 30 Dec. 06 Dec. 13 Dec. 20 Dec. 28
Sunrise:07:37 AM (PST) Moon Rise:06:25 PM (PST)11/30
Sunset:04:24 PM (PST) Moon Set:09:13 AM (PST)11/30

Copyright © 2014 The Weather Underground, Inc.